Location: York
(31.8935°S, 116.7682°E)
Time: 10:21:29
(UTC+08:00)

deb Explorer IX - Pass Details

Date: 04 October 2022
Orbit: 533 x 1057 km, 38.8° (Epoch: 01 December)

Event Time Altitude Azimuth Distance (km) Brightness Sun altitude
Rises 14:59:20 0° 346° (NNW) 3,811 ? 40.2°
Reaches altitude 10° 15:03:14 10° 5° (N) 2,827 ? 39.4°
Maximum altitude 15:07:14 16° 41° (NE) 2,341 ? 38.6°
Drops below altitude 10° 15:11:04 10° 77° (ENE) 2,690 ? 37.9°
Sets 15:14:37 0° 97° (E) 3,542 ? 37.2°
